Regional Weather Roundup
Issued by NWS

Home | Current Version | Previous Version | Text Only | Print | Product List | Glossary Off
Versions: 1 2 3 4 5 6 7 8 9 10 11 12 13 14 15 16 17 18 19 20 21 22 23 24 25 26 27 28 29 30 31 32 33 34 35 36 37 38 39 40 41 42 43 44 45 46 47 48 49 50

000
ASUS45 KBOU 282207
RWRCO

WEATHER ROUNDUP FOR COLORADO
NATIONAL WEATHER SERVICE DENVER/BOULDER CO
300 PM MST WED JAN 28 2015

NOTE: "FAIR" INDICATES FEW OR NO CLOUDS BELOW 12000 FEET WITH NO
SIGNIFICANT WEATHER AND/OR OBSTRUCTIONS TO VISIBILITY.

COZ001>005-013-030-031-282300-
...NORTHWEST COLORADO...

CITY           SKY/WX    TMP DP  RH WIND       PRES   REMARKS
CRAIG          CLOUDY    43  30  60 NW5       30.24R
HAYDEN         CLOUDY    39  28  65 NW6       30.24R
MEEKER         MOSUNNY   44  29  55 SE6       30.23S
MOUNT WERNER   NOT AVBL
STEAMBOAT SPGS CLOUDY    39  29  67 NW9       30.24
WALDEN         CLOUDY    36  27  69 SW5       30.23R
$$

COZ006>008-011-282300-
...WEST CENTRAL VALLEYS...

CITY           SKY/WX    TMP DP  RH WIND       PRES   REMARKS
GRAND JUNCTION SUNNY     52  33  48 NW9       30.22S
MONTROSE       SUNNY     53  27  36 NW6       30.22F
EAGLE          PTSUNNY   48  25  40 W10       30.24
RIFLE          MOSUNNY   52  28  39 S10       30.21F
DELTA          SUNNY     58  29  32 SW10      30.20F
NUCLA          SUNNY     52  28  40 NW6       30.26S
$$

COZ017>023-064>068-282300-
...SOUTHWEST COLORADO...

CITY           SKY/WX    TMP DP  RH WIND       PRES   REMARKS
DURANGO        MOSUNNY   50  29  44 SW10      30.21S
CORTEZ         SUNNY     53  30  41 W10       30.22F
PAGOSA SPRINGS MOSUNNY   48  24  39 CALM      30.22F
TELLURIDE      MOSUNNY   42  21  44 W10       30.27F
WOLF CREEK PAS NOT AVBL
$$

COZ009-010-012-014-032>034-037-058>063-282300-
...CENTRAL COLORADO...

CITY           SKY/WX    TMP DP  RH WIND       PRES   REMARKS
ASPEN          PTSUNNY   41  25  53 CALM      30.24R
BUENA VISTA    MOSUNNY   48  16  27 W15G22    30.17R
COPPER MTN     CLOUDY    30  14  51 W21G30    30.29R WCI  17
BERTHOUD PASS  SNOW      18  12  79 NW23G36   30.27S VSB<1/4 WCI   0
COTTONWOOD PAS MOSUNNY   41  10  28 NW6G16    30.22S
GUNNISON       SUNNY     36  25  64 CALM      30.28S
KREMMLING      CLOUDY    39  27  60 NE5       30.24S
LEADVILLE      CLOUDY    32  14  47 NW14G22   30.25R WCI  22
MONARCH PASS   SUNNY     27  18  69 W37       30.36S WCI   9
SALIDA         MOSUNNY   51  19  28 SW16G23   30.24R
SUNLIGHT       PTSUNNY   34  23  64 CALM      30.32R
WILKERSON PASS SUNNY     32  14  47 W10G18    30.25R WCI  24
$$

COZ069>075-282300-
...SAN LUIS VALLEY/SANGRE DE CRISTO MOUNTAINS...

CITY           SKY/WX    TMP DP  RH WIND       PRES   REMARKS
ALAMOSA        PTSUNNY   49  23  36 NE10      30.19S
LA VETA PASS   NOT AVBL
SAGUACHE       SUNNY     43  23  45 N15G22    30.21R
$$

COZ035-036-038>040-282300-
...NORTHERN COLORADO FRONT RANGE...

CITY           SKY/WX    TMP DP  RH WIND       PRES   REMARKS
DENVER INTL AP MOSUNNY   59  18  20 NW12G21   30.06R
DMNS CITY PARK   N/A     58  17  19 NW7G18    30.06S
AURORA         MOSUNNY   58  18  21 NW13      30.08R
FRONT RANGE AP MOSUNNY   59  21  23 NW13      30.07R
ERIE MUNI ARPT SUNNY     60  16  17 N9        30.04S
BOULDER MUN AP SUNNY     59  21  23 NW12      30.04R
CENTENNIAL     MOSUNNY   57  17  21 N15       30.08R
BROOMFIELD     MOSUNNY   59  18  20 VRB5      30.07
FORT COLLINS   MOSUNNY   59  23  25 NW23G31   30.06R
LONGMONT       MOSUNNY   65  17  16 W5        30.06R
$$

COZ041-046-047-076>085-087-088-282300-
...PIKES PEAK/PALMER DIVIDE AND SOUTHERN FOOTHILLS...

CITY           SKY/WX    TMP DP  RH WIND       PRES   REMARKS
COLO. SPRINGS  MOSUNNY   58  15  18 NW21G26   30.07R
A. F. ACADEMY  SUNNY     55  14  19 NW25G33   30.08R
ELLICOTT       MOSUNNY  N/A N/A N/A N17       30.06R
FALCON         SUNNY     55  13  19 NW14G23   30.10R
FORT CARSON    SUNNY     61  15  17 NE8       30.04S
LIMON          SUNNY     58  18  21 NW22G33   30.06R
MONUMENT HILL  SUNNY     50  19  29 N17G25    30.10R
TRINIDAD       CLOUDY    59  22  24 NW10G26   30.06S
$$

COZ042>045-048>051-090-091-282300-
...NORTHEAST COLORADO...

CITY           SKY/WX    TMP DP  RH WIND       PRES   REMARKS
GREELEY ARPT   PTSUNNY   61  25  25 NW24G31   30.03R
AKRON          MOSUNNY   55  31  39 NW36G48   30.04R
BURLINGTON     SUNNY     62  27  26 NW29G37   30.00R
WRAY           PTSUNNY   61  32  33 NW31G40   29.99R
STERLING       MOSUNNY   55  37  50 NW31G41   30.04R
HOLYOKE        PTSUNNY   61  32  33 NW30G39   29.98R
FORT MORGAN    MOSUNNY   56  31  38 N23G31    30.06R
$$

COZ086-089-092>099-282300-
...SOUTHEAST COLORADO...

CITY           SKY/WX    TMP DP  RH WIND       PRES   REMARKS
PUEBLO         SUNNY     66  17  15 NW16      30.01S
LA JUNTA       SUNNY     68  21  16 N12       30.00S
LAMAR          MOSUNNY   67  24  19 N20       29.98R
SPRINGFIELD      N/A     63  24  22 NW15      30.02R
$$


USA.gov is the U.S. government's official web portal to all federal, state and local government web resources and services.